Weather History for Juneau, AK

Change the Weather History Date:

Monday, February 4, 2013

  Actual Average Record
Temperature  
Mean Temperature 36 °F 29 °F  
Max Temperature 38 °F 34 °F 47 °F (1977)
Min Temperature 33 °F 24 °F -6 °F (1949)
Degree Days  
Heating Degree Days 29 36  
Month to date heating degree days 112 144  
Since 1 July heating degree days 5366 5004  
Moisture  
Dew Point 30 °F    
Average Humidity 89    
Maximum Humidity 92    
Minimum Humidity 85    
Precipitation  
Precipitation T in 0.15 in 0.93 in (1984)
Month to date precipitation 1.35 0.61  
Year to date precipitation 9.05 5.96  
Snow  
Snow 0.00 in 0.70 in 12.20 in (1947)
Month to date snowfall 0.0 3.0  
Since 1 July snowfall 62.0 60.2  
Snow Depth -    
Sea Level Pressure  
Sea Level Pressure 29.78 in    
Wind  
Wind Speed 7 mph (ENE)    
Max Wind Speed 12 mph    
Max Gust Speed 17 mph    
Visibility 8 miles    
Events Fog , Rain    
T = Trace of Precipitation, MM = Missing Value Source: NWS Daily Summary

Daily Weather History Graph

Daily Weather History Graph

Search for Another Location

Airport:

Trip Planner

Search our weather history database for the weather conditions in past years. The results will help you decide how hot, cold, wet, or windy it might be!

Date:

Astronomy

Feb. 04, 2013 Rise Set
Actual Time 7:55 AM AKST 4:29 PM AKST
Civil Twilight 7:12 AM AKST 5:13 PM AKST
Nautical Twilight 6:24 AM AKST 6:00 PM AKST
Astronomical Twilight 5:38 AM AKST 6:46 PM AKST
Moon 3:00 AM AKST (2/4) 10:36 AM AKST (2/4)
Length of Visible Light 10h 00m
Length of Day
8h 33m
Waning Crescent, 35% of the Moon is Illuminated
Feb 4
Waning Crescent
Feb 9
New
Feb 17
First Quarter
Feb 25
Full
Mar 4
Last Quarter

Hourly Weather History & Observations

Time (AKST) Temp. Windchill Dew Point Humidity Pressure Visibility Wind Dir Wind Speed Gust Speed Precip Events Conditions
3:53 AM 35.1 °F 29.3 °F 32.0 °F 89% 29.84 in 10.0 mi ENE 6.9 mph - N/A   Overcast
4:53 AM 35.1 °F 28.6 °F 32.0 °F 89% 29.85 in 10.0 mi East 8.1 mph - 0.00 in Rain Light Rain
5:53 AM 35.1 °F 29.3 °F 32.0 °F 89% 29.85 in 10.0 mi ENE 6.9 mph - 0.00 in   Overcast
6:53 AM 35.1 °F 28.6 °F 32.0 °F 89% 29.85 in 10.0 mi ENE 8.1 mph - 0.00 in Rain Light Rain
7:53 AM 35.1 °F 29.3 °F 32.0 °F 89% 29.85 in 10.0 mi ENE 6.9 mph - 0.00 in Rain Light Rain
8:53 AM 34.0 °F 27.2 °F 32.0 °F 92% 29.86 in 10.0 mi ENE 8.1 mph - 0.00 in   Overcast
9:53 AM 36.0 °F 31.1 °F 33.1 °F 89% 29.86 in 10.0 mi ENE 5.8 mph - N/A   Overcast
10:53 AM 36.0 °F 30.3 °F 33.1 °F 89% 29.88 in 10.0 mi ENE 6.9 mph - N/A   Overcast
11:53 AM 37.0 °F 31.0 °F 33.1 °F 86% 29.87 in 10.0 mi ENE 8.1 mph - 0.00 in Rain Light Rain
12:53 PM 37.0 °F 31.0 °F 34.0 °F 89% 29.86 in 10.0 mi ENE 8.1 mph - 0.00 in Rain Light Rain
1:53 PM 37.0 °F 32.4 °F 32.0 °F 82% 29.85 in 10.0 mi ENE 5.8 mph - 0.00 in   Mostly Cloudy
2:53 PM 36.0 °F 30.3 °F 33.1 °F 89% 29.83 in 10.0 mi ENE 6.9 mph - N/A   Scattered Clouds
3:53 PM 34.0 °F 28.0 °F 32.0 °F 92% 29.80 in 10.0 mi ENE 6.9 mph - N/A   Scattered Clouds
4:53 PM 32.0 °F 27.5 °F 30.9 °F 96% 29.78 in 10.0 mi SE 4.6 mph - N/A   Partly Cloudy
5:53 PM 30.0 °F - 28.9 °F 96% 29.77 in 10.0 mi Calm Calm - N/A   Partly Cloudy
6:53 PM 28.9 °F - 28.0 °F 96% 29.75 in 10.0 mi Calm Calm - N/A Fog Patches of Fog
7:53 PM 27.0 °F - 26.1 °F 96% 29.72 in 0.5 mi Calm Calm - N/A   Mostly Cloudy
8:25 PM 27.0 °F - 27.0 °F 100% 29.70 in 10.0 mi Calm Calm - N/A   Scattered Clouds
8:53 PM 27.0 °F - 26.1 °F 96% 29.69 in 10.0 mi Calm Calm - N/A   Scattered Clouds
9:21 PM 26.1 °F - 25.0 °F 96% 29.68 in 2.0 mi Calm Calm - N/A   Mostly Cloudy
9:53 PM 26.1 °F - 25.0 °F 96% 29.66 in 0.5 mi Calm Calm - N/A Fog Light Freezing Fog
10:53 PM 26.1 °F - 25.0 °F 96% 29.63 in 1.0 mi Calm Calm - N/A   Mist
11:43 PM 25.0 °F - 23.0 °F 92% 29.61 in 0.2 mi Calm Calm - N/A Fog Light Freezing Fog
11:53 PM 25.0 °F 20.7 °F 24.1 °F 96% 29.60 in 0.5 mi East 3.5 mph - N/A Fog Light Freezing Fog